Location: Tamazert
(32.6352°N, 5.2072°W)
Time: 21:34:59
(UTC+00:00)

Transit 2A Rocket - Pass Details

Date: 08 October 2022
Orbit: 589 x 911 km, 66.7° (Epoch: 28 November)

Event Time Altitude Azimuth Distance (km) Brightness Sun altitude
Rises 03:29:38 0° 178° (S) 2,873 - -36.2°
Reaches altitude 10° 03:32:12 10° 165° (SSE) 1,942 - -35.7°
Maximum altitude 03:35:45 25° 109° (ESE) 1,204 - -34.9°
Exits shadow 03:37:28 19° 74° (ENE) 1,404 7.0 -34.6°
Drops below altitude 10° 03:39:16 10° 54° (NE) 1,916 7.8 -34.2°
Sets 03:41:47 0° 41° (NE) 2,826 8.7 -33.7°
